Theta_e
307 307 307 309 308 308 308 309 309 309 309 309 309 309 310 311 310 310 311 312 312 312 313 313 314 314 314 315 315 315 315 316 316 316 316 316 316 315 315 317 317 316 314 313 313 313 314 314 314 314 317 319 318 319 317 320 328 332 333 326 321 327 327 327 331 324 318 321 321 319 315 313 315 317 315 313 315 319 319 316 315 313 313 314 314 312 312 314
307 307 308 309 308 309 309 310 310 310 310 309 309 310 312 313 312 312 312 313 313 313 314 314 314 314 314 314 314 315 315 316 317 316 316 317 318 317 317 317 316 315 313 313 313 313 316 316 313 316 321 320 317 319 320 318 323 338 333 320 326 334 330 328 331 324 318 318 318 319 316 313 314 316 314 314 318 319 317 316 314 314 315 312 312 311 311 313
307 308 308 309 309 309 310 310 311 311 310 310 310 311 312 313 314 313 313 313 314 314 314 314 314 314 314 314 314 313 314 316 316 315 317 318 317 317 316 316 315 314 313 313 314 313 315 316 313 318 323 319 319 321 324 320 320 333 327 322 336 336 327 326 326 322 319 316 316 318 316 314 315 314 313 314 317 318 317 317 315 315 316 314 312 311 311 313
308 309 308 309 309 309 310 310 311 311 311 311 311 312 312 313 313 313 313 314 314 314 314 314 314 314 315 314 314 313 314 317 316 315 317 316 315 315 315 314 313 313 313 313 314 313 314 314 313 319 322 319 322 321 325 325 319 322 321 326 335 326 322 325 324 323 319 315 315 316 316 316 315 314 314 315 316 317 317 318 316 315 315 315 313 310 309 311
309 310 309 309 310 310 310 310 312 311 311 312 312 312 313 313 313 314 314 315 315 316 316 317 317 317 317 316 314 313 317 320 316 314 315 315 314 314 314 314 313 313 313 314 315 314 314 313 313 319 321 318 320 320 324 326 320 320 323 328 329 321 318 322 325 321 316 315 315 317 317 316 315 315 316 316 316 316 316 316 316 314 313 312 311 308 307 309
310 310 310 309 310 310 310 311 312 312 312 312 313 313 315 315 315 316 316 317 318 319 319 320 320 320 319 317 315 314 318 320 315 315 315 313 314 314 314 314 314 313 313 315 315 314 315 313 315 320 320 317 317 318 320 319 317 321 324 325 326 321 318 321 322 318 316 316 316 317 315 314 315 316 317 317 316 316 316 315 315 313 309 307 307 306 308 310
310 310 310 310 310 311 311 312 313 313 313 313 315 316 317 317 317 318 318 320 320 321 321 321 321 320 320 317 316 317 320 320 316 319 318 313 314 314 314 314 314 313 313 314 314 315 316 315 316 319 319 317 316 318 317 315 316 320 324 325 324 320 320 322 320 319 319 316 315 315 312 313 315 315 316 316 315 315 314 312 310 307 304 305 307 306 308 309
312 311 311 310 311 312 312 314 313 313 314 315 317 318 318 319 319 320 320 321 321 321 321 321 321 319 319 316 316 321 322 319 317 319 319 316 316 315 314 315 314 313 312 313 314 315 315 315 315 315 317 317 315 316 315 313 317 320 323 325 321 318 320 322 319 319 319 315 314 313 313 314 313 314 314 314 314 312 313 311 308 306 305 306 307 307 307 306
313 312 312 311 312 313 314 315 315 315 316 317 319 319 320 320 320 321 321 322 321 321 320 320 319 317 318 314 314 322 321 318 318 318 319 318 319 317 315 315 314 314 313 313 314 313 314 317 317 314 316 317 314 315 315 314 318 321 321 321 318 316 318 317 316 317 316 315 313 312 315 313 312 313 313 316 314 312 313 309 308 311 311 308 307 307 306 306
315 314 314 313 313 314 316 316 317 317 317 319 320 320 320 320 320 321 321 322 321 321 319 319 318 316 316 314 315 322 319 318 320 319 319 320 319 317 315 315 314 313 313 313 313 312 313 315 314 313 316 316 313 313 314 314 315 317 318 317 315 314 315 315 316 316 313 313 313 312 314 313 312 312 315 318 315 312 312 307 307 312 310 307 307 306 305 305
315 315 315 314 314 315 317 317 318 319 319 320 320 320 320 320 320 320 320 320 320 320 319 318 316 315 315 314 317 322 318 318 319 318 319 319 317 316 315 315 314 313 313 314 314 313 313 313 311 311 315 315 314 313 313 314 313 313 314 315 316 314 313 314 315 314 312 312 314 314 315 314 312 313 317 316 313 313 312 309 309 310 309 307 306 305 304 304
316 315 315 315 315 316 318 317 318 320 320 320 321 321 320 320 319 319 319 319 319 319 318 317 315 315 315 315 318 319 317 317 318 318 318 317 315 314 314 315 315 314 314 313 314 314 314 314 312 314 316 314 314 314 313 314 313 313 313 314 317 316 314 315 314 313 312 313 315 314 315 318 315 316 319 313 312 314 311 309 310 309 307 307 305 304 304 303
316 315 315 315 316 317 318 317 319 321 321 321 321 320 320 320 319 319 318 318 318 318 317 315 315 314 316 320 320 316 317 317 317 318 318 316 315 314 314 315 316 315 314 314 314 315 315 315 314 315 315 316 318 314 312 315 313 314 314 313 314 315 317 316 312 312 312 313 316 314 316 325 325 321 318 311 310 315 313 309 309 309 307 306 305 304 303 302
316 315 315 315 316 318 318 319 321 321 321 321 321 321 321 320 320 319 318 319 318 316 315 313 314 314 317 323 319 315 317 316 317 318 317 317 316 316 316 316 316 316 315 315 315 314 314 314 313 314 313 315 316 311 314 321 319 315 313 314 316 315 321 322 313 313 314 313 314 312 317 324 325 322 315 309 310 315 315 310 308 309 307 305 304 303 303 302
316 315 316 315 316 317 318 320 321 321 321 321 321 322 322 321 320 319 319 319 316 314 314 313 313 315 318 321 317 315 316 316 317 317 317 318 317 316 316 316 316 315 315 315 315 314 313 313 314 316 315 312 315 317 319 324 328 323 314 321 324 316 321 323 315 315 316 313 311 311 319 320 318 322 314 308 312 316 317 312 309 308 305 304 304 302 303 302
316 315 316 315 316 317 319 322 322 321 321 322 322 322 321 321 320 319 319 317 314 315 315 316 315 315 319 320 315 314 315 316 317 317 317 318 317 316 316 316 315 314 314 314 314 313 312 315 314 315 315 312 318 327 324 321 329 327 316 320 326 319 318 319 316 317 314 313 311 311 318 319 318 323 316 309 310 314 318 313 307 306 304 303 302 302 302 301
316 315 315 315 316 318 320 322 322 321 321 321 321 321 320 320 320 320 319 316 315 315 315 316 315 315 319 317 316 317 315 315 315 316 317 317 316 316 314 314 312 311 312 312 313 313 311 314 313 313 317 315 318 324 323 319 323 325 318 316 320 318 316 318 318 317 314 313 313 311 314 316 318 321 316 311 310 314 317 311 306 305 303 302 302 301 301 301
316 315 315 315 316 318 320 321 321 320 321 320 319 320 320 320 320 318 318 316 315 315 316 315 315 320 323 317 317 318 314 314 315 315 316 316 316 315 313 312 310 310 312 312 312 313 313 315 317 319 318 315 315 318 320 321 321 323 322 319 320 319 316 317 317 317 316 316 315 316 316 316 318 318 315 311 310 315 313 307 305 304 302 303 302 301 301 300
316 315 316 315 316 318 320 320 320 320 320 319 320 320 320 319 317 316 316 316 318 321 323 320 318 325 327 318 315 315 313 314 315 315 315 315 314 314 312 311 311 313 315 315 313 313 316 318 318 320 317 315 315 315 316 318 318 321 320 320 322 321 319 318 317 316 316 315 317 317 316 319 319 318 316 311 309 311 309 305 304 303 302 302 301 301 301 300
316 316 316 315 316 319 320 320 320 320 319 319 320 319 320 322 322 322 318 318 321 323 325 323 320 323 322 317 315 314 315 314 314 315 314 314 314 314 312 312 315 317 318 322 319 313 314 317 318 318 318 316 315 313 314 314 314 315 316 318 319 319 319 318 317 317 315 315 320 319 317 320 319 316 313 310 310 310 306 304 304 303 303 302 301 301 300 300
316 316 316 315 317 319 319 320 320 319 319 320 320 318 321 324 325 324 322 322 320 316 321 322 316 318 318 315 315 314 315 316 315 313 312 313 313 314 315 314 318 319 319 323 320 311 312 317 319 319 318 316 314 312 312 312 312 313 315 316 317 317 316 315 315 317 314 315 321 320 318 321 320 314 309 307 312 311 306 304 304 303 303 302 301 301 300 300
315 315 316 316 317 318 318 320 320 320 320 320 319 315 316 317 317 316 318 324 322 314 316 318 314 317 316 314 315 314 317 320 318 315 312 312 313 315 317 317 320 322 319 319 317 314 315 317 318 317 315 313 313 312 312 313 313 313 314 314 316 317 317 319 321 319 315 315 322 322 318 320 318 310 307 306 308 307 304 305 304 303 303 302 301 301 300 299
315 315 315 316 317 317 318 320 320 320 320 320 318 314 313 313 314 313 314 323 325 318 318 320 318 318 318 316 315 315 317 320 320 318 314 312 314 316 317 318 319 320 319 318 319 320 320 320 318 314 312 312 313 314 313 314 314 314 315 315 317 317 318 323 325 322 318 315 320 321 318 320 316 309 307 305 304 304 303 304 304 303 303 302 301 300 300 299
315 315 315 316 317 317 319 320 319 320 320 319 317 316 315 315 313 312 315 320 323 320 319 317 316 319 321 316 314 317 319 319 320 319 314 313 316 315 316 319 318 319 318 318 319 319 321 322 317 312 313 314 314 315 315 316 316 317 318 317 318 318 318 321 321 322 322 319 317 315 319 326 320 314 313 306 304 304 303 303 303 302 301 301 300 300 299 299
316 316 316 317 317 318 319 320 320 320 321 319 318 318 316 315 312 311 317 322 324 323 318 313 315 319 317 313 314 317 318 319 320 317 312 312 316 315 315 316 316 319 318 315 316 317 318 318 315 315 316 315 315 316 318 318 317 320 322 319 318 319 319 320 318 318 322 327 320 313 322 334 323 316 314 308 306 306 304 304 303 302 302 301 300 299 298 298
316 315 315 317 318 318 319 321 320 320 321 319 318 319 317 315 313 312 319 326 327 326 320 316 317 317 313 312 313 315 320 320 314 311 311 311 313 315 317 316 316 319 319 316 317 318 318 316 315 318 319 317 317 318 319 318 318 321 325 323 319 318 318 319 319 319 325 329 319 311 319 331 328 322 314 308 308 306 304 304 303 302 302 301 300 299 299 297
317 316 316 317 318 319 320 321 321 320 321 321 319 318 317 316 313 312 319 328 329 326 322 317 315 315 313 311 311 317 325 321 311 310 311 311 311 312 317 318 315 316 317 317 320 321 320 318 316 316 319 320 319 319 319 319 322 325 324 324 325 321 320 321 321 321 324 324 320 318 317 322 328 324 312 307 310 307 305 305 303 303 302 301 300 299 298 297
317 316 316 317 318 320 320 321 321 321 322 321 319 318 318 316 313 315 324 332 330 323 319 316 312 312 310 308 311 316 316 314 315 313 309 309 311 312 316 319 320 319 316 317 325 323 317 318 320 318 319 321 320 321 322 320 323 327 321 321 323 322 323 325 324 323 320 318 323 324 317 319 327 319 308 308 312 309 306 305 304 303 302 300 300 299 297 297
317 317 317 317 319 320 320 321 321 321 322 320 319 319 318 314 313 318 327 332 327 318 316 314 310 311 311 310 312 313 309 309 314 313 309 309 311 312 315 318 321 320 314 315 323 322 316 315 319 321 320 320 321 322 322 321 321 320 317 318 321 321 323 325 326 324 321 320 323 323 319 320 323 317 309 310 314 312 307 305 304 303 302 301 299 298 297 296
317 318 317 317 318 319 320 320 320 321 321 320 320 318 315 315 317 323 329 329 322 316 313 313 312 312 313 313 313 312 310 311 312 312 312 312 312 312 312 313 317 319 317 317 319 319 316 312 314 319 320 321 322 317 315 318 316 314 318 323 325 324 323 325 324 322 322 323 321 322 321 318 320 320 313 312 313 312 307 304 304 303 302 301 299 298 297 296
319 318 317 317 318 318 319 319 319 320 320 320 320 317 316 321 323 328 330 324 320 319 314 314 314 312 313 317 317 313 311 312 312 313 314 313 314 315 312 312 316 322 322 320 320 319 317 314 315 319 318 318 321 316 313 315 315 316 324 326 325 326 323 323 324 322 323 324 319 320 319 315 320 322 316 313 310 308 307 305 304 303 302 301 300 298 297 296
319 317 317 318 319 319 319 320 320 320 320 320 319 318 320 324 325 327 327 322 323 323 318 317 315 312 314 317 318 315 313 313 312 314 317 316 316 317 316 317 319 323 324 322 323 322 319 319 318 317 315 316 322 322 316 316 316 320 325 323 322 325 323 324 326 322 323 321 315 316 316 314 319 319 314 315 310 305 306 304 302 302 301 300 299 298 297 296
320 317 316 318 319 319 319 320 320 320 321 319 319 321 322 324 326 326 325 325 325 320 318 320 318 316 317 317 318 317 314 314 312 314 317 316 316 317 318 319 318 318 319 319 320 321 323 323 317 314 315 316 321 322 319 320 319 319 322 323 324 324 325 329 327 319 320 320 313 312 315 317 321 317 310 309 306 303 305 305 302 301 300 299 298 298 297 296
320 318 317 318 319 319 320 320 320 320 320 318 320 323 322 324 326 323 324 326 324 319 318 320 319 317 318 318 320 319 316 316 314 313 315 314 315 319 319 317 315 316 318 318 319 321 324 326 322 318 317 317 317 317 323 327 320 316 320 322 323 326 327 329 326 321 321 321 314 310 315 323 324 314 304 303 303 301 304 303 302 301 299 298 297 297 296 295
320 318 318 319 319 319 319 320 320 319 319 318 321 323 323 324 325 324 326 325 323 321 318 320 321 317 319 323 322 319 317 318 316 314 316 316 318 323 324 321 317 317 320 320 321 320 320 325 327 319 314 315 316 317 322 326 320 315 316 318 320 323 322 319 321 319 316 318 317 314 319 322 317 308 302 302 302 301 302 301 301 300 299 298 297 296 296 296
318 316 317 318 318 319 319 319 319 318 318 320 323 323 322 324 325 325 326 322 321 321 318 322 325 320 323 327 324 319 316 318 318 316 317 318 319 322 325 326 320 315 318 322 323 321 319 324 324 316 313 315 315 316 317 321 320 315 314 318 317 316 316 318 319 315 313 317 319 318 320 318 312 308 303 302 303 301 301 301 300 300 299 298 297 296 296 295
316 314 314 314 316 318 318 318 318 316 317 321 323 323 321 322 323 325 324 319 319 323 321 324 325 323 325 326 324 322 319 319 319 318 321 320 319 320 322 324 319 314 316 319 322 321 319 323 322 316 317 315 310 314 316 316 316 317 319 319 315 313 317 320 321 319 318 320 319 318 319 318 318 314 305 302 304 302 301 301 300 299 298 297 297 297 296 295
314 313 313 313 315 317 317 317 316 315 317 320 322 322 321 321 319 320 322 318 318 324 324 324 324 323 325 325 325 323 320 321 320 320 324 322 320 321 321 319 316 315 316 314 318 321 317 320 321 315 316 316 310 315 318 313 311 316 319 315 314 319 320 320 320 321 321 320 320 321 318 316 318 317 312 308 305 303 302 300 300 299 298 297 297 297 296 295
313 314 315 314 314 316 316 315 315 316 319 320 321 321 321 321 319 319 320 318 319 324 324 324 322 321 323 324 325 322 319 322 322 320 322 321 319 318 316 317 315 315 318 315 317 322 316 318 321 314 312 315 314 316 322 319 312 311 313 312 314 319 320 320 319 320 322 320 320 323 320 319 319 317 319 317 307 302 302 300 300 299 298 297 297 297 296 295
311 316 316 311 312 315 315 315 315 317 320 319 319 319 319 319 320 321 320 317 318 321 321 323 321 320 322 321 321 321 320 322 322 320 320 319 319 318 315 317 316 316 317 315 314 318 316 316 320 317 312 314 317 318 321 323 318 314 316 316 315 315 317 319 316 317 322 321 322 322 319 322 321 313 315 314 306 301 302 301 300 299 298 297 297 296 295 294
311 318 315 308 310 314 314 316 317 318 319 316 316 317 317 317 318 320 319 316 318 318 318 322 322 321 321 320 321 320 319 322 323 319 319 319 319 318 315 316 318 316 316 316 315 318 317 317 319 319 315 318 324 320 315 317 319 318 319 319 318 316 317 319 317 317 317 318 322 321 317 321 317 307 308 309 305 302 301 301 300 299 298 298 297 297 295 294
312 318 313 307 310 313 314 318 318 318 318 316 316 317 316 317 317 318 318 316 317 317 317 320 321 321 320 320 322 321 319 322 322 319 321 320 318 318 315 315 318 316 316 320 319 317 317 318 318 317 318 319 319 314 309 311 314 315 317 318 318 317 316 318 319 319 317 315 317 317 317 318 311 304 306 307 305 303 301 300 300 299 299 298 297 297 295 294
313 314 309 307 310 311 315 319 317 317 318 315 316 317 315 316 316 316 317 317 317 317 317 318 318 319 319 319 319 320 319 321 321 321 322 321 319 318 316 316 317 317 318 319 319 316 315 316 316 316 319 319 314 312 311 310 311 313 315 315 317 318 317 317 317 319 319 317 317 317 317 317 310 305 305 304 303 303 301 300 301 300 300 299 298 297 295 294
310 309 307 307 308 310 316 319 317 317 317 314 315 315 314 314 315 315 316 317 317 318 318 318 317 318 318 318 318 319 319 320 319 319 320 321 318 313 312 314 314 315 317 317 317 318 316 317 318 317 318 319 316 315 315 313 312 315 317 316 315 316 317 315 314 315 316 317 318 317 316 316 312 306 304 303 303 302 301 301 301 302 301 300 298 297 295 294
307 308 307 306 306 308 313 315 315 316 316 315 315 315 314 314 313 314 315 315 316 317 318 317 317 317 317 317 318 317 317 318 318 318 317 318 317 312 311 312 311 314 318 317 315 314 315 318 319 316 317 318 316 316 317 317 316 315 317 316 314 314 315 314 314 315 314 316 318 316 315 316 314 309 305 304 303 302 302 302 302 302 302 300 298 297 295 294
309 310 308 307 306 307 309 309 311 314 315 315 315 315 315 315 312 312 313 314 315 315 316 315 315 316 316 317 317 317 317 316 316 317 316 317 319 316 312 310 310 313 315 314 312 312 314 318 317 316 317 315 315 316 316 316 317 315 315 315 313 312 312 313 314 314 313 314 315 315 313 313 313 312 307 304 303 303 303 303 302 301 301 300 298 297 296 295
308 310 309 309 308 308 308 308 310 312 313 314 314 314 314 315 313 311 312 313 314 314 315 315 315 315 315 316 315 316 316 315 314 315 315 316 319 315 308 306 308 311 311 310 310 311 313 315 314 314 315 314 313 314 312 311 314 315 314 313 312 310 310 311 311 312 312 313 313 313 312 311 312 312 310 307 305 303 303 304 303 302 302 300 298 297 296 295
305 308 307 307 309 310 309 309 309 310 312 313 313 313 314 314 314 313 312 311 312 313 314 315 314 314 315 315 315 316 315 315 315 314 313 315 315 313 310 307 306 307 309 308 307 310 312 313 313 312 312 311 309 309 311 312 312 313 313 314 313 311 310 309 309 310 311 312 312 311 311 311 311 310 310 309 307 305 305 305 303 302 301 300 298 297 296 295
302 303 302 302 305 307 307 309 309 309 310 312 312 312 313 313 313 312 311 311 311 311 313 314 314 313 314 314 315 315 314 314 314 313 313 313 313 313 313 312 308 305 307 308 307 308 310 312 312 311 311 311 307 306 309 310 310 310 311 312 312 310 307 306 307 308 309 309 309 309 308 308 308 307 308 310 308 305 304 302 301 301 301 301 299 297 296 294
301 301 301 301 302 302 303 307 309 309 310 310 311 312 311 312 313 311 310 311 311 310 311 312 312 312 313 314 314 314 313 313 313 312 313 313 313 312 313 314 311 305 305 308 308 306 306 309 311 308 308 309 305 303 304 305 306 308 309 309 308 305 304 305 305 306 306 306 306 305 305 305 304 304 306 307 305 302 301 302 302 302 302 301 299 297 295 294
297 297 298 301 302 301 302 305 307 309 310 310 311 311 310 311 311 310 309 309 310 311 311 312 311 311 311 311 312 312 312 311 312 311 311 312 311 311 312 312 310 308 308 307 307 307 306 307 308 307 309 310 305 302 302 301 301 303 305 305 303 301 302 304 303 303 304 304 304 303 303 304 303 302 301 300 300 301 302 302 301 299 298 299 299 298 295 294
295 294 295 299 303 302 301 303 305 307 308 308 309 310 310 309 308 309 309 308 308 309 310 311 311 310 310 310 309 310 309 308 308 306 305 306 307 307 309 309 309 310 309 306 305 306 306 306 307 307 308 308 303 301 302 301 303 305 304 303 302 301 301 301 300 301 302 302 303 303 303 303 301 299 298 298 299 300 300 299 298 298 297 296 296 296 294 293
Wind_Speed
1 1 1 1 1 1 1 1 2 2 2 3 4 4 5 6 6 7 7 8 8 9 10 11 12 13 14 15 16 17 19 19 19 16 11 13 11 6 6 4 3 4 4 5 7 7 4 3 2 3 3 3 4 2 2 3 2 4 3 3 1 3 4 5 7 6 3 3 6 5 3 1 5 5 4 3 2 4 7 7 4 4 6 7 9 9 10 9
1 1 1 1 1 2 2 2 2 3 3 3 4 5 6 6 7 7 8 8 8 9 10 11 12 13 14 15 16 17 18 18 18 16 11 8 3 5 6 4 3 3 4 5 7 7 4 2 1 5 5 3 3 3 2 2 3 3 3 2 3 6 5 6 7 5 3 3 6 6 3 3 5 4 2 3 6 6 8 10 2 4 8 9 11 10 10 8
1 1 1 1 1 2 2 2 3 3 3 4 4 5 6 7 7 7 8 8 9 9 10 10 11 12 13 13 14 14 16 15 11 8 4 2 5 7 6 3 1 3 5 3 6 5 3 4 5 5 4 3 2 3 3 2 1 1 4 1 6 6 5 5 6 6 6 3 4 7 3 2 5 3 0 3 7 5 6 10 4 6 10 8 7 6 8 8
2 1 1 1 1 1 2 2 2 2 3 4 4 5 6 6 7 7 8 8 9 9 9 9 10 11 11 11 11 11 11 8 4 2 2 4 7 7 6 4 3 4 6 3 4 4 3 4 5 5 4 2 4 3 1 2 0 1 3 4 6 3 2 6 7 7 6 3 3 4 4 5 6 2 2 2 6 7 7 8 7 8 10 9 7 7 9 9
2 1 2 2 2 2 2 2 2 2 3 4 4 5 5 6 7 7 8 8 9 8 9 9 9 9 9 10 9 8 7 5 2 1 2 5 6 6 4 3 4 5 6 3 4 5 2 4 5 5 4 1 2 3 2 3 3 2 3 6 5 4 3 7 5 4 2 3 3 4 6 6 4 1 2 2 6 7 7 7 7 7 7 8 7 7 8 7
3 2 2 3 2 2 2 2 2 2 2 3 4 5 6 7 7 8 8 8 9 9 9 9 9 8 8 7 6 4 2 1 3 2 3 5 6 5 3 2 3 4 7 5 4 4 2 5 5 3 2 1 2 2 4 2 2 2 4 3 4 4 4 6 3 2 1 1 5 5 4 2 4 6 4 5 10 10 10 7 5 6 5 5 6 7 8 8
4 3 3 4 3 3 2 2 2 2 2 3 4 5 6 7 7 8 8 9 9 9 10 9 9 8 7 5 3 3 3 4 6 3 5 5 6 5 3 2 2 4 8 7 3 4 4 4 2 3 4 1 3 4 4 1 2 2 4 5 4 4 5 6 5 5 4 5 8 3 4 4 4 7 3 7 13 12 10 5 6 6 10 10 9 9 8 8
4 4 4 4 4 3 2 2 2 2 2 2 4 5 6 7 7 8 9 9 9 10 10 9 9 8 6 3 0 3 2 6 6 4 6 6 7 6 5 4 3 5 9 9 5 5 4 4 4 4 2 2 4 3 2 1 2 3 5 4 3 2 5 7 5 8 7 7 6 2 6 7 7 4 3 13 18 11 4 7 7 8 12 12 10 9 8 9
6 5 5 5 4 3 2 2 2 2 2 3 4 5 6 7 8 9 9 9 10 10 10 9 8 6 4 1 4 2 4 5 3 4 5 6 8 8 7 5 5 6 7 7 5 6 5 5 5 4 4 3 4 3 1 1 3 5 5 3 4 5 6 6 6 8 6 5 3 2 10 8 4 2 4 15 16 6 7 9 7 10 12 9 8 8 8 9
8 6 5 5 4 3 3 2 2 2 2 3 4 5 6 7 8 9 9 10 10 10 10 9 7 4 3 1 5 0 5 3 4 4 3 5 7 7 8 6 5 6 6 5 5 7 5 5 5 4 4 2 4 2 1 3 3 4 3 4 5 6 7 4 6 9 5 4 5 6 12 8 3 0 4 10 5 6 10 9 8 11 10 8 7 7 9 10
9 8 7 6 4 3 3 3 2 2 2 3 4 5 6 8 8 9 9 10 10 10 10 8 6 4 2 3 5 4 4 3 5 4 3 4 5 6 6 5 4 5 6 4 5 7 5 5 5 5 2 2 3 1 2 4 2 1 0 5 6 6 7 5 7 9 3 4 6 8 8 6 3 1 8 9 4 9 10 9 8 10 8 7 7 7 8 10
11 11 9 7 5 4 4 4 3 2 3 3 4 5 7 8 9 9 9 10 10 9 9 8 5 3 2 2 5 9 8 7 7 6 5 4 4 5 4 4 3 4 5 3 3 5 4 4 6 4 3 3 2 1 3 3 1 0 2 5 8 7 7 9 7 4 3 2 4 7 3 6 1 7 11 5 7 8 10 9 7 8 7 6 7 7 7 10
12 10 8 7 6 5 5 4 3 2 3 4 5 6 7 9 10 10 10 10 9 8 7 6 4 4 2 1 5 10 12 11 11 9 7 4 4 4 4 3 3 3 4 3 2 2 2 4 7 4 2 4 1 2 1 3 2 3 2 1 6 7 7 9 2 2 1 3 4 5 3 7 6 11 10 4 6 7 10 7 6 6 6 6 6 6 7 10
12 10 8 7 6 6 6 4 3 2 3 5 6 8 9 10 11 11 11 10 8 7 6 3 2 4 3 4 5 6 9 10 10 9 7 6 5 4 4 4 4 3 2 3 4 4 3 3 6 3 1 2 1 1 3 5 3 3 2 1 3 2 5 8 2 1 3 1 3 4 2 6 9 12 7 4 5 8 9 5 6 5 5 6 5 6 6 8
13 11 9 8 7 7 6 4 3 3 5 7 8 9 10 11 11 12 10 8 5 4 3 1 3 4 1 6 6 5 6 6 8 10 8 8 6 4 5 6 5 4 3 4 5 4 4 4 5 3 1 1 3 2 3 4 4 2 2 4 3 2 5 10 5 4 3 3 2 4 2 6 8 11 5 5 6 8 8 4 6 5 6 6 5 6 5 6
12 10 9 8 7 7 6 4 3 4 6 8 10 10 11 12 12 11 7 4 2 1 1 2 3 3 1 4 2 2 4 5 6 9 9 8 7 4 6 8 5 5 5 5 5 5 4 4 2 2 1 0 3 4 3 4 4 2 1 4 3 3 3 7 6 2 3 0 1 2 2 4 5 10 6 6 6 6 8 5 6 5 5 5 4 5 5 5
12 9 8 8 8 7 6 4 3 4 7 9 11 10 11 11 10 8 4 1 1 1 2 2 4 3 2 3 1 3 4 5 5 5 7 7 6 6 7 6 4 5 6 4 4 3 2 3 1 0 2 2 3 4 3 2 5 3 0 3 4 4 3 3 5 4 3 3 0 1 3 5 7 10 9 8 7 6 8 6 6 5 5 5 4 5 5 6
11 10 9 8 7 7 5 3 3 5 7 10 10 10 10 8 5 4 2 4 3 2 2 1 3 1 3 3 2 3 1 3 3 4 7 6 6 6 5 4 5 6 6 4 2 2 2 2 2 0 2 1 3 5 2 5 6 5 4 3 3 4 4 4 5 4 4 3 2 3 4 8 10 10 8 9 7 8 8 6 5 5 5 5 5 6 6 7
12 11 10 8 8 7 5 2 4 6 8 9 9 7 6 4 3 1 3 5 3 1 1 3 4 2 3 3 3 2 0 2 3 5 6 6 6 6 5 5 6 6 4 1 1 0 1 3 4 1 2 3 6 7 10 11 9 8 6 4 4 4 4 5 6 5 2 4 6 6 7 7 9 8 7 9 6 8 7 6 5 4 5 5 5 5 6 7
13 11 10 9 8 7 3 2 4 6 8 9 7 4 2 1 2 2 1 2 5 5 2 4 6 3 3 3 2 2 2 2 3 4 6 7 9 7 4 4 5 4 2 3 2 0 3 3 2 5 7 9 11 12 13 10 5 4 3 4 5 4 5 6 6 6 1 1 6 6 6 7 6 4 6 8 5 7 6 6 6 5 5 5 6 6 6 7
13 12 10 9 8 6 3 3 4 6 7 8 6 2 2 2 1 2 3 3 8 9 6 7 8 7 7 4 4 4 2 1 2 2 6 8 9 7 1 2 4 0 2 3 2 1 2 4 7 9 11 11 9 9 9 6 3 3 4 4 4 4 7 7 6 7 2 3 6 3 3 7 4 3 6 6 6 5 4 6 7 6 6 5 6 6 6 5
13 12 11 9 7 6 4 3 4 6 6 5 4 0 2 2 2 1 0 3 8 8 8 8 5 8 11 7 6 3 2 2 4 1 7 7 5 5 2 3 4 3 1 3 2 1 1 4 10 13 10 5 2 3 5 6 6 6 4 3 5 4 4 7 6 5 0 4 5 2 3 6 2 4 5 6 5 4 4 6 6 6 6 5 5 5 5 5
13 12 10 9 8 6 5 3 5 6 5 3 2 2 2 1 2 1 2 1 6 4 5 6 5 6 8 8 8 6 3 5 4 4 9 9 2 4 4 4 5 3 2 4 5 4 3 6 12 12 5 2 4 2 6 5 5 5 4 3 5 3 1 4 5 4 1 1 2 2 4 5 0 3 4 6 4 5 6 6 6 5 5 5 4 4 5 5
13 12 11 10 9 6 3 4 6 5 3 3 3 4 3 1 2 2 1 0 4 4 4 6 5 4 5 5 5 8 5 4 3 4 11 12 4 2 4 5 5 3 4 8 8 7 7 7 5 4 4 6 7 4 5 5 3 3 5 5 6 5 6 7 4 5 4 3 1 1 4 5 2 1 2 4 4 5 5 6 7 5 4 5 5 5 5 4
14 14 12 11 9 5 2 4 6 4 4 3 3 5 3 2 3 3 2 1 3 5 4 4 2 3 4 2 5 8 3 2 3 3 9 12 6 3 2 3 4 5 7 6 6 6 9 6 2 3 4 5 5 6 5 7 3 4 5 10 10 9 9 8 3 4 4 4 3 1 2 5 3 1 3 2 4 4 4 5 6 4 4 5 5 5 5 4
15 14 13 11 9 6 2 3 3 4 4 4 5 5 5 4 4 3 2 3 4 4 1 2 2 3 4 2 2 5 3 2 3 1 5 7 5 4 2 1 1 4 6 4 3 3 5 4 3 5 5 6 5 6 5 7 4 3 5 9 11 9 8 6 2 1 1 4 3 2 2 5 5 2 5 4 4 4 3 4 4 3 4 4 4 4 3 4
15 14 13 12 11 9 4 1 3 5 2 4 7 7 5 4 4 3 1 3 4 3 3 1 0 2 3 1 1 4 3 3 1 3 2 3 2 3 2 3 1 2 3 3 0 3 4 2 1 4 5 5 5 5 5 8 6 4 4 5 7 7 7 5 5 5 3 3 4 3 2 3 6 4 3 6 6 3 3 3 3 3 3 3 3 3 3 3
16 15 15 15 14 14 8 2 3 6 3 3 8 8 5 4 4 2 3 1 4 1 3 1 0 2 1 1 3 4 2 1 3 0 2 3 1 3 1 5 5 4 2 5 3 4 1 1 2 6 5 4 5 4 7 9 4 5 3 5 5 5 5 4 5 3 1 2 4 3 2 2 7 3 2 4 4 4 6 6 5 4 3 3 3 3 3 2
16 15 17 17 15 15 13 8 5 5 4 4 8 7 6 6 4 3 3 2 1 2 2 0 1 1 2 2 2 2 1 2 2 2 3 2 0 3 2 5 6 4 0 4 5 5 1 3 4 7 5 6 4 1 6 8 3 4 5 6 5 5 4 4 4 3 2 1 4 6 5 3 5 1 3 2 4 6 7 6 5 5 4 3 3 2 2 2
16 16 17 17 14 14 14 14 14 10 6 7 8 6 6 5 2 3 4 4 0 1 1 1 1 0 3 4 1 2 1 1 1 2 3 1 2 5 1 2 5 4 1 3 2 5 3 2 2 4 3 5 3 3 2 4 3 4 6 6 5 5 5 3 2 4 2 3 5 9 9 5 4 3 5 4 3 5 8 6 5 5 4 5 3 3 2 2
18 16 17 17 16 16 11 10 19 19 11 9 9 7 5 2 2 4 6 2 2 0 1 1 1 2 4 4 1 1 1 1 1 2 1 1 3 4 1 1 3 3 3 4 3 4 5 2 2 2 2 4 5 4 2 3 4 5 4 4 3 4 4 4 4 3 0 5 4 6 5 5 5 5 3 3 3 3 10 10 10 9 7 6 4 4 3 2
20 19 18 18 18 19 14 9 15 21 17 11 10 6 3 1 1 4 3 2 0 2 2 2 1 2 4 3 1 3 3 1 0 3 3 2 2 2 2 3 3 2 2 4 3 4 3 4 3 3 1 4 5 4 3 5 5 5 4 4 2 3 3 3 3 0 3 6 3 2 1 2 7 5 2 3 4 2 7 10 13 13 10 7 6 4 3 3
22 20 19 20 20 20 20 14 11 17 21 15 9 3 3 3 4 4 3 1 1 2 2 2 2 3 5 2 1 2 2 1 2 2 2 3 2 3 4 3 5 2 1 2 1 2 3 5 2 0 3 2 7 5 2 1 2 4 5 5 4 2 0 3 4 2 4 5 3 1 2 2 6 2 1 3 4 5 4 6 10 11 10 8 6 5 4 3
23 23 22 21 21 21 23 19 13 16 22 16 7 3 3 4 3 3 6 4 1 1 1 2 3 3 4 2 3 3 2 2 3 4 2 2 2 3 4 4 5 3 2 2 2 3 2 5 2 4 2 2 6 6 5 5 4 4 4 5 4 4 4 4 4 3 4 4 3 2 2 3 3 1 3 5 4 3 2 7 7 7 7 6 5 5 4 4
24 25 24 22 22 23 23 20 16 19 22 13 4 3 5 5 1 2 5 3 1 1 1 2 3 3 1 1 2 2 3 2 2 4 2 3 3 3 3 4 5 4 3 3 2 2 3 5 6 3 1 4 5 2 4 6 2 2 3 4 2 4 5 3 3 4 2 3 3 2 3 4 3 1 3 2 2 4 5 7 8 7 6 6 5 5 5 4
23 22 22 20 22 25 25 20 18 23 20 8 4 6 6 4 3 3 3 2 2 3 4 1 3 3 1 2 2 1 1 1 2 3 2 2 3 4 3 4 6 8 6 4 3 1 2 5 5 3 2 2 4 2 3 3 2 1 2 3 3 3 5 2 2 1 2 3 4 2 3 4 1 1 3 3 4 4 4 6 8 8 7 7 6 5 5 5
20 16 12 11 16 23 24 20 20 22 13 5 7 7 4 3 4 4 2 1 1 3 5 2 1 3 3 1 1 2 1 1 2 2 2 2 2 4 4 3 4 10 9 4 2 3 2 4 4 1 2 2 1 1 2 2 3 4 2 4 2 2 3 2 1 2 2 4 4 1 4 4 2 2 3 3 2 4 4 6 7 7 7 7 7 6 6 5
19 12 5 6 11 16 18 19 20 15 5 3 8 7 3 3 3 3 2 2 1 3 3 3 3 3 3 2 2 2 2 2 2 2 2 2 3 4 5 3 2 5 6 3 1 2 2 2 6 2 3 2 3 2 2 4 1 4 3 2 3 2 1 2 2 2 3 5 4 3 3 3 4 4 2 4 8 9 8 7 8 9 9 8 7 7 6 6
16 8 2 7 12 12 14 17 14 8 2 4 8 6 2 2 3 2 2 1 2 3 2 3 1 1 2 3 3 2 2 3 3 3 2 2 3 3 3 3 1 1 2 2 3 2 2 1 5 2 0 1 4 2 2 3 2 2 1 1 2 2 3 2 2 3 4 5 4 5 4 3 5 5 7 11 13 12 11 10 11 12 10 8 8 7 7 7
9 3 1 6 14 16 16 14 6 3 3 3 4 3 1 0 3 2 2 2 1 1 1 2 1 2 2 3 3 2 1 3 4 2 2 2 2 2 1 2 3 2 3 3 2 0 1 2 4 4 2 0 1 3 6 6 4 2 2 2 1 1 1 1 1 2 3 3 3 4 5 5 4 3 7 10 10 13 15 15 13 11 10 10 9 8 8 7
3 1 0 4 13 17 15 8 3 2 2 2 3 2 0 1 1 2 0 2 1 1 1 2 3 3 2 2 2 2 1 2 3 3 2 2 2 2 1 1 3 3 2 3 1 2 1 2 3 3 1 3 5 5 5 7 6 5 5 5 5 4 2 3 5 1 2 2 3 3 6 7 4 1 4 5 6 11 14 14 12 12 12 11 9 8 8 8
2 1 0 5 14 15 9 3 1 2 2 3 3 2 1 2 1 2 1 2 2 0 1 1 2 2 3 3 3 3 3 2 3 4 3 4 4 4 2 2 3 3 3 2 2 3 2 2 2 5 4 5 6 4 1 4 3 3 3 4 4 4 4 5 7 4 1 2 2 1 5 6 2 2 4 5 6 9 11 11 11 11 12 10 8 8 7 7
2 1 1 7 13 10 5 3 1 2 3 2 1 1 1 2 2 3 2 2 2 2 2 2 2 3 4 3 3 4 4 3 4 5 4 4 5 4 2 4 4 4 3 1 3 1 2 2 2 5 4 2 3 4 2 2 3 1 2 2 3 3 4 5 5 3 2 3 2 1 5 4 1 3 3 3 4 6 7 7 8 8 8 7 7 7 7 7
2 2 2 5 8 5 4 5 5 5 6 3 1 1 1 1 3 4 3 4 3 3 3 3 3 4 4 3 4 5 5 4 4 5 5 4 4 1 1 2 3 3 2 2 2 2 1 2 3 4 6 4 4 3 2 2 0 2 3 1 2 2 3 2 1 2 3 5 6 5 7 5 2 3 3 3 3 5 5 5 6 7 7 5 6 7 7 8
2 1 2 2 4 3 2 3 3 4 6 6 6 4 3 2 3 5 5 5 4 4 4 3 3 4 4 3 4 4 4 4 4 3 3 4 3 2 2 1 2 4 3 1 2 1 2 3 4 5 7 8 7 5 3 2 1 2 3 3 4 6 6 3 2 3 5 5 5 5 5 4 3 2 4 4 4 6 6 6 5 5 6 6 7 7 8 8
2 1 1 0 2 2 2 0 1 2 4 5 5 5 7 7 3 3 6 6 5 4 3 3 2 2 3 5 5 4 6 7 6 4 4 4 3 2 2 1 1 3 2 1 4 3 0 2 5 9 11 11 11 8 3 3 3 3 5 7 6 7 8 5 3 4 4 2 3 5 2 2 5 2 1 1 4 5 6 7 6 5 5 6 7 7 8 7
1 2 3 2 0 2 3 2 3 3 3 4 4 4 8 10 5 3 5 5 5 5 3 3 4 5 5 6 5 5 6 7 7 7 6 5 3 3 3 2 2 4 3 3 3 4 2 3 7 10 14 13 10 6 2 3 3 4 5 5 5 4 5 6 5 5 3 2 7 6 4 3 8 5 4 5 4 4 5 6 6 5 5 6 6 6 7 6
1 1 2 2 1 4 5 5 7 7 5 5 4 4 7 10 9 6 4 2 2 5 5 4 6 11 11 7 6 5 6 6 7 8 7 4 2 2 3 3 3 3 4 3 1 3 3 5 6 7 11 11 5 4 5 4 3 3 4 5 6 6 7 6 5 4 4 4 9 6 3 5 8 5 6 7 7 7 8 6 5 5 5 6 6 6 7 7
1 0 2 1 1 3 3 3 7 10 10 7 4 6 11 12 11 6 2 2 2 5 8 8 10 12 11 7 6 6 8 7 7 6 5 4 4 3 3 4 3 1 3 3 1 2 3 4 4 3 7 8 3 4 6 6 5 5 6 8 9 8 6 6 5 6 7 7 8 6 4 7 8 5 6 7 6 7 4 2 3 6 7 7 7 7 8 8
2 1 1 2 1 1 2 1 6 8 9 7 6 9 10 11 11 5 2 5 6 4 7 12 12 8 7 8 9 11 13 10 9 8 6 5 5 4 3 4 2 1 1 2 1 1 2 3 2 3 2 4 2 1 1 3 5 5 6 10 8 2 3 5 7 7 5 6 8 6 6 9 8 4 5 4 3 3 3 5 7 7 6 5 6 7 8 9
3 2 2 2 1 2 0 1 4 5 6 7 8 10 8 9 11 7 2 5 7 5 5 10 12 6 4 7 11 14 14 9 8 9 6 6 5 4 3 4 5 3 2 3 1 1 2 2 1 3 3 5 3 4 3 1 1 4 10 14 9 3 4 6 5 6 7 7 8 6 6 9 6 3 4 1 2 5 8 9 8 7 5 6 8 9 10 10
4 3 3 3 1 3 2 2 3 5 7 7 9 9 8 8 7 6 4 4 5 6 6 7 8 5 4 7 11 12 9 5 5 4 3 3 2 1 1 3 6 5 4 4 1 1 3 2 1 3 4 3 2 5 4 3 0 5 9 10 9 8 9 7 3 5 8 7 6 7 8 9 4 4 3 3 5 8 10 9 8 7 6 7 9 9 10 9
Wind_Direction
309 331 22 42 22 27 24 21 40 33 15 3 8 8 7 2 350 351 347 351 353 346 343 338 336 333 331 332 331 330 329 327 322 315 299 297 298 251 221 233 261 260 219 188 178 165 132 107 114 75 73 57 13 339 357 4 60 55 76 104 206 197 202 192 190 197 183 281 279 315 17 164 277 301 314 321 339 317 308 296 259 273 275 245 262 287 305 303
291 288 317 350 355 7 11 12 24 31 19 3 6 3 3 4 356 353 343 347 350 344 342 337 335 331 332 333 330 331 328 324 317 307 301 302 283 179 183 199 257 246 198 190 191 171 129 166 148 68 52 40 351 349 5 346 65 83 112 131 227 202 213 197 185 201 203 262 278 301 321 195 234 267 348 300 289 332 319 293 259 283 290 280 281 287 298 294
284 251 271 315 349 357 354 3 17 22 14 3 3 0 359 360 358 353 343 342 343 342 340 335 333 330 332 330 330 333 326 325 318 307 329 75 128 146 151 156 204 195 193 200 201 181 118 164 146 82 47 44 338 0 27 358 41 147 125 164 243 212 233 236 200 213 227 248 286 294 312 220 240 246 315 265 282 304 282 279 292 303 301 301 299 311 315 299
273 236 237 271 300 325 329 347 3 8 4 360 357 355 353 350 350 346 340 339 339 340 336 334 331 329 330 328 332 331 329 343 317 297 65 122 135 134 128 137 156 177 199 201 183 177 88 120 114 68 65 43 331 6 22 277 311 168 140 193 232 187 232 252 219 225 237 208 220 272 325 303 275 217 209 301 310 292 257 254 245 262 290 309 325 333 317 297
270 245 235 254 266 289 303 320 343 356 354 357 352 347 346 342 343 343 340 338 338 338 335 333 328 328 330 329 334 329 350 27 283 263 115 154 152 144 129 141 158 179 197 179 160 162 102 98 85 54 69 60 337 28 265 249 119 160 220 212 203 150 230 265 228 215 212 175 231 296 311 298 307 285 245 288 284 271 262 255 241 249 288 313 323 329 326 321
286 266 248 253 258 273 287 312 333 349 350 353 348 344 344 338 340 341 337 337 338 338 335 332 328 329 330 329 332 338 49 42 261 224 187 184 178 174 154 164 164 190 196 176 149 147 113 78 73 78 78 31 181 189 252 260 114 211 272 262 228 186 226 285 288 256 4 332 279 286 294 323 358 307 261 245 248 247 261 276 303 312 347 354 351 6 10 9
290 277 265 262 262 268 282 310 322 338 343 347 346 343 340 336 337 336 334 336 337 337 335 332 330 328 328 327 323 28 86 250 261 233 232 209 203 207 198 223 197 210 205 192 163 137 115 91 110 148 101 12 197 208 245 318 62 201 262 291 268 210 221 267 293 289 295 277 262 266 316 311 293 289 287 260 256 253 270 332 14 7 39 44 40 38 35 35
291 276 266 260 262 269 272 293 302 307 323 339 343 338 335 334 333 332 333 333 334 336 333 331 331 330 329 325 53 18 345 253 259 252 250 237 233 235 235 244 232 226 208 206 201 155 134 134 175 160 115 250 187 189 223 46 23 203 232 274 282 255 245 266 290 284 278 264 254 269 286 262 231 258 306 272 271 276 310 34 38 51 55 52 49 40 35 38
296 278 259 253 253 262 260 279 298 291 316 342 338 334 334 333 331 331 329 328 331 332 331 331 329 329 316 346 92 20 273 240 270 276 263 254 248 243 240 242 235 223 196 205 203 164 171 183 198 186 178 208 175 195 197 157 260 217 209 250 292 301 290 300 295 272 275 258 203 255 276 268 233 243 278 263 270 314 50 53 45 68 63 49 47 39 36 36
295 288 272 259 249 259 258 261 291 297 315 334 331 331 331 330 328 326 323 323 326 326 329 329 325 322 277 156 100 221 255 253 296 296 282 259 247 240 238 241 237 216 183 187 188 169 177 195 191 160 156 155 164 197 139 160 211 201 195 247 255 283 292 291 274 270 293 272 202 222 271 287 309 318 264 263 282 41 60 59 53 70 64 48 44 35 38 37
291 291 286 271 251 250 247 249 275 289 301 320 323 323 325 324 321 320 320 319 320 323 325 324 319 301 228 149 145 218 257 281 299 316 312 267 244 236 232 238 236 210 188 177 199 198 202 204 160 122 149 184 162 200 253 203 184 172 263 301 278 297 293 250 258 270 282 283 204 184 258 300 8 187 239 258 22 53 67 68 58 64 58 47 42 33 38 34
290 284 279 268 251 242 239 252 272 280 294 308 311 315 319 318 314 314 317 317 318 321 321 324 310 260 189 128 209 234 254 269 284 302 297 269 232 220 208 212 210 207 210 201 216 212 221 214 155 146 219 168 143 294 245 222 88 286 40 332 300 336 315 268 273 268 178 238 188 151 291 308 238 226 241 275 25 49 70 71 60 62 56 44 40 37 37 28
291 278 268 262 252 243 242 250 264 276 291 299 304 310 311 310 311 311 314 317 318 321 322 321 290 223 161 263 240 243 258 264 272 279 273 241 200 192 189 202 199 203 221 215 204 171 187 200 163 169 184 126 194 247 95 40 17 303 22 24 305 344 317 277 298 34 129 210 183 146 291 286 256 248 255 341 27 59 67 65 65 61 54 47 41 42 38 28
292 279 266 260 254 249 250 251 252 267 291 299 302 304 304 305 305 307 313 315 319 326 327 328 240 174 152 251 259 267 267 261 261 256 240 215 191 185 201 208 201 195 192 176 162 123 112 161 145 122 89 125 249 291 13 8 4 318 315 332 332 319 281 291 307 45 316 281 162 138 212 264 273 272 280 18 50 85 77 68 73 62 54 50 40 46 40 31
289 281 269 261 258 256 255 252 250 272 292 297 297 300 301 300 301 306 309 312 323 330 337 39 152 141 77 279 270 279 267 252 246 237 232 222 204 203 205 193 182 166 149 151 149 129 114 128 126 117 260 309 46 23 333 346 5 21 299 298 336 210 267 308 296 193 228 313 82 137 200 267 273 278 299 52 55 83 93 91 76 65 58 53 41 49 41 30
284 277 266 260 260 259 256 253 259 285 296 298 298 301 302 301 303 304 303 310 326 337 36 75 138 121 342 280 273 279 249 237 237 233 229 220 213 206 177 170 161 146 145 144 141 135 113 96 96 130 163 348 76 75 23 358 332 351 229 252 269 229 269 317 308 210 191 315 24 160 224 277 273 282 305 45 38 73 106 103 80 71 60 58 50 50 45 35
282 272 260 257 256 253 250 254 270 291 298 299 301 304 305 306 307 302 289 258 139 102 69 114 135 103 274 252 278 288 252 226 233 228 213 205 208 191 156 144 129 125 119 112 130 125 60 57 49 304 62 59 109 96 43 311 280 304 265 232 250 231 215 295 302 323 48 88 309 274 237 253 271 287 311 1 19 78 109 104 88 80 66 65 60 57 52 44
274 268 259 257 257 250 243 260 297 303 301 301 307 309 309 313 316 304 230 162 120 67 24 95 125 101 270 242 229 257 236 207 218 193 190 186 185 179 147 120 117 110 85 51 68 84 10 18 62 37 26 51 131 123 184 228 224 231 224 219 251 239 219 251 268 302 13 14 305 277 251 257 273 284 315 350 20 86 104 104 95 82 75 69 61 62 55 50
261 261 255 255 256 248 241 291 318 312 306 303 311 314 313 333 348 317 166 147 134 142 255 213 164 151 255 258 247 240 151 180 185 178 182 164 159 154 112 96 101 101 93 43 314 88 103 49 64 140 215 204 189 180 203 219 214 216 220 205 218 241 242 237 247 261 327 325 290 262 259 260 267 288 332 341 19 89 103 99 91 78 76 69 62 60 51 53
251 248 246 251 249 242 243 308 313 314 314 311 322 336 315 350 5 320 243 172 209 210 196 207 200 217 277 267 220 193 197 190 183 182 176 162 153 135 88 60 62 66 118 160 209 256 122 150 186 206 214 213 210 207 212 223 213 196 214 228 226 238 262 258 260 270 192 237 274 256 261 264 261 317 346 330 15 77 90 93 88 78 74 66 67 60 49 53
244 239 240 244 237 233 239 279 306 315 316 316 329 354 191 186 144 294 299 269 246 236 243 233 212 243 260 227 171 156 122 220 238 172 164 164 151 146 141 54 84 309 243 156 153 31 119 190 224 223 220 221 220 214 219 236 235 214 219 245 266 241 259 269 264 277 210 176 265 273 274 273 276 10 352 350 36 47 57 93 95 87 84 71 67 60 50 48
238 236 237 233 225 228 236 265 307 310 309 311 316 257 179 178 149 196 9 293 274 244 237 248 236 255 256 243 230 198 71 281 272 231 167 154 138 180 206 94 145 211 220 131 118 4 219 222 236 234 227 233 265 183 195 226 228 232 221 231 266 250 280 291 281 297 239 178 261 285 257 272 331 46 14 27 53 41 40 80 90 91 93 77 68 60 52 47
235 233 230 224 220 227 236 266 295 300 293 280 269 189 170 137 125 114 97 290 291 266 221 235 228 239 251 259 239 202 208 231 248 253 180 154 127 193 152 133 180 175 137 186 185 182 215 237 239 238 215 202 262 186 156 205 230 224 203 204 252 255 335 283 286 322 337 208 264 234 254 273 113 83 50 41 58 70 57 65 66 69 86 81 73 60 52 47
234 230 224 219 218 223 243 278 281 280 264 240 237 211 185 146 141 126 72 311 288 281 235 220 208 208 230 256 204 178 200 209 209 242 181 159 138 159 160 169 173 164 201 208 197 202 233 246 240 217 158 182 235 240 167 198 248 240 208 208 240 244 223 232 277 329 334 346 359 225 295 296 254 206 84 54 57 72 59 68 68 55 65 73 69 59 47 36
233 227 220 216 212 203 242 284 271 242 214 212 226 213 178 148 152 135 68 12 293 293 274 220 198 198 197 159 164 171 171 206 219 225 180 168 153 139 191 177 150 203 219 201 200 235 253 245 143 138 167 170 206 243 210 193 232 282 230 214 224 233 232 240 295 347 345 334 335 22 291 295 318 279 173 123 74 71 45 65 82 64 59 63 62 59 44 29
232 225 216 212 196 175 191 283 249 193 196 229 220 197 176 165 160 151 87 32 284 273 271 196 168 177 176 119 157 151 111 261 260 126 159 172 160 126 160 191 99 216 203 173 192 240 256 240 157 170 172 146 185 245 226 167 160 268 244 211 215 222 229 237 202 131 244 260 295 47 186 264 304 250 192 159 108 96 78 80 95 84 70 68 63 53 35 22
229 222 214 205 184 176 179 192 189 170 179 240 206 187 185 170 167 185 92 16 286 227 133 227 37 140 176 184 159 137 151 266 9 74 118 147 162 77 125 205 141 205 181 124 214 238 229 250 117 156 143 144 194 241 213 153 139 238 246 177 182 198 210 205 171 181 231 260 318 5 126 260 283 259 187 138 119 118 147 139 132 127 106 87 70 51 39 18
226 220 211 202 189 188 189 158 177 187 216 225 184 182 178 163 172 139 79 352 282 114 103 271 88 95 158 48 68 114 195 290 88 296 348 99 154 60 120 216 175 189 178 130 216 261 204 227 197 163 146 183 208 213 181 155 156 243 210 124 137 164 170 139 134 175 316 359 306 295 137 254 270 269 86 119 143 192 195 186 178 166 148 119 94 69 51 32
223 216 208 203 197 201 210 220 219 214 223 175 159 176 169 162 165 77 82 221 260 68 69 55 120 19 12 61 43 62 25 13 108 266 353 84 144 71 164 208 152 167 231 125 215 266 278 240 207 154 157 212 213 199 173 162 196 225 128 93 69 72 82 81 104 113 35 336 243 217 177 230 268 218 133 186 240 216 194 186 186 175 169 159 132 120 88 55
218 211 208 201 199 210 217 227 231 226 211 175 161 160 157 156 125 110 208 228 70 84 115 104 170 103 76 94 3 356 48 350 19 357 20 71 3 36 134 175 105 127 337 18 255 261 298 301 190 151 175 198 143 80 157 154 152 141 99 63 35 27 38 41 53 85 35 283 216 200 193 193 261 267 178 197 242 185 162 168 188 177 179 186 169 157 140 82
214 206 204 197 200 212 207 222 230 221 206 187 167 145 136 112 78 173 216 229 55 49 123 122 223 118 119 131 172 191 121 327 2 72 70 53 27 35 64 119 75 70 359 330 294 301 326 329 261 245 186 136 100 78 44 52 91 106 85 68 41 338 9 21 356 50 190 260 225 211 203 176 229 265 216 229 308 165 164 170 179 178 181 184 174 170 158 111
211 202 202 201 204 211 206 220 231 217 208 188 159 136 115 125 214 201 231 345 32 220 159 173 217 160 157 138 164 179 149 204 250 123 136 126 134 179 190 177 151 58 341 257 270 338 307 244 263 301 243 144 109 77 14 14 52 86 95 98 90 313 347 350 309 327 231 254 249 210 162 192 238 249 244 283 326 264 197 178 173 173 174 173 170 169 152 120
210 201 205 210 209 212 215 223 228 209 199 178 150 108 99 195 225 190 192 237 197 199 128 130 135 141 142 118 237 193 146 192 191 154 146 120 151 236 255 207 167 144 294 211 216 347 300 295 314 233 274 191 142 147 213 271 122 140 148 137 141 168 346 285 268 269 272 274 283 214 154 242 270 289 314 276 292 276 224 167 163 164 162 164 164 159 146 129
212 204 209 215 213 216 217 219 222 197 182 166 145 112 141 211 234 155 192 217 173 144 77 97 108 104 111 145 230 184 154 218 167 144 131 104 136 247 255 228 183 158 125 141 190 177 200 305 247 183 246 195 171 184 169 142 152 177 154 133 148 157 168 229 231 222 266 290 302 274 174 201 232 259 270 258 284 313 126 126 129 133 139 144 141 143 147 145
214 206 210 214 215 219 214 215 216 188 172 160 145 165 190 217 206 146 208 216 169 156 92 78 105 103 60 291 272 205 180 227 139 126 145 156 176 205 209 209 189 166 139 157 233 173 165 254 256 243 267 156 182 216 124 112 134 205 124 116 167 175 174 226 218 174 205 299 288 226 217 223 194 218 301 300 30 47 94 118 122 128 134 136 145 158 163 166
205 198 203 208 212 216 213 213 204 183 173 156 161 195 211 212 172 179 208 173 182 160 130 83 82 115 250 301 298 271 149 154 126 133 199 194 200 212 213 225 190 175 166 166 214 194 169 261 282 328 337 167 186 210 127 134 191 158 122 175 208 163 151 210 269 105 85 268 263 198 232 286 305 278 340 39 78 79 104 133 141 150 154 156 170 177 177 182
188 183 195 206 210 212 211 208 192 185 184 163 181 202 208 192 176 183 194 147 181 126 127 172 167 158 207 237 256 250 137 156 144 151 215 230 230 204 204 260 198 183 192 188 224 220 187 267 276 196 227 256 213 134 60 28 141 130 176 209 171 113 102 108 245 336 18 250 269 205 208 253 258 244 342 35 140 162 167 164 157 163 169 176 186 186 186 189
170 163 183 211 211 210 205 195 182 181 192 182 200 211 185 189 194 170 173 157 115 70 113 191 211 170 175 185 235 233 171 191 170 159 195 229 241 180 165 227 202 192 216 184 210 248 145 266 283 228 188 297 10 82 19 337 73 134 193 199 115 161 208 101 167 231 252 249 270 278 243 232 216 214 206 204 203 192 184 179 179 185 186 187 190 190 192 188
156 148 198 196 192 190 183 179 171 169 190 201 216 225 175 201 232 189 174 148 93 85 135 216 225 131 157 168 196 216 184 188 176 176 190 195 230 196 150 189 157 17 304 144 168 243 108 216 283 317 203 321 19 83 193 273 327 85 189 333 70 166 180 158 161 183 224 245 262 281 294 267 233 207 183 200 201 183 178 187 194 193 187 190 190 187 190 186
143 142 267 178 174 171 166 166 160 164 198 206 221 232 108 235 259 244 195 154 100 86 172 214 184 165 188 170 180 204 182 179 172 180 211 194 231 256 193 167 148 96 19 60 142 265 66 220 264 312 335 233 199 208 194 193 189 162 193 244 259 195 159 249 238 143 167 208 231 267 278 264 253 198 187 207 199 180 183 188 191 189 187 195 195 187 186 184
109 142 278 158 165 163 157 161 183 176 195 235 234 242 298 158 264 299 287 136 138 6 104 159 183 184 179 175 196 189 157 186 181 180 237 229 221 251 251 114 143 151 81 58 101 223 193 208 240 268 273 200 229 243 204 190 189 178 191 207 204 193 187 257 256 200 139 191 190 223 265 265 260 209 211 224 198 188 191 186 181 184 190 195 195 188 185 184
114 175 315 153 160 159 154 174 199 137 197 236 217 217 200 141 171 249 229 121 137 179 86 138 193 185 185 198 194 172 167 209 204 194 234 236 210 218 218 102 107 119 110 125 226 222 154 127 225 252 238 216 241 269 204 184 172 157 199 207 182 169 168 216 242 231 196 243 155 167 262 264 262 260 252 243 210 195 195 188 179 183 190 193 191 185 184 190
153 162 41 153 161 160 165 204 186 163 219 226 156 202 183 142 191 215 200 181 172 164 166 195 190 198 222 209 180 186 194 205 206 199 217 234 220 222 196 145 131 95 94 191 245 211 106 114 230 265 284 303 313 330 2 96 105 130 245 192 149 171 178 206 228 193 186 229 161 184 252 251 316 315 283 247 199 169 173 179 175 181 191 190 184 180 184 191
124 85 48 171 181 176 186 207 205 206 215 200 162 220 243 187 194 190 188 198 191 161 172 200 189 203 225 193 179 207 208 210 224 209 204 220 228 271 49 145 168 154 161 216 226 213 225 200 204 254 277 294 314 322 323 324 195 202 240 230 176 156 127 130 202 155 215 219 184 207 247 248 291 339 14 48 107 130 149 163 172 187 189 183 184 187 190 188
113 81 34 211 218 222 219 212 199 206 211 214 221 220 229 248 208 186 187 193 197 178 181 218 194 188 204 181 182 214 208 210 232 223 210 224 254 332 9 359 183 184 212 227 126 167 230 199 184 221 242 251 252 240 231 249 232 202 220 223 211 186 172 171 175 194 230 219 182 211 250 269 298 1 42 59 108 134 157 169 185 202 190 185 191 191 191 190
134 160 85 85 290 274 255 190 130 197 200 207 226 221 218 234 252 199 191 203 219 194 185 229 181 158 206 195 191 215 214 213 218 220 216 214 242 278 284 306 199 191 214 84 105 111 147 221 218 223 233 244 250 249 221 156 170 214 217 208 209 210 199 179 159 192 212 214 226 232 215 303 295 293 95 151 163 168 180 182 196 206 191 194 200 196 194 191
152 184 162 150 192 244 238 223 197 210 186 180 198 207 214 222 232 224 199 207 217 191 197 237 187 189 213 194 193 220 215 213 218 225 232 226 244 282 268 238 213 193 160 120 123 114 110 246 235 228 241 249 248 245 207 147 187 212 208 211 225 227 191 180 202 209 168 183 252 242 162 208 267 253 203 204 198 204 215 210 214 217 207 205 201 193 190 183
186 190 188 142 127 210 222 213 200 206 207 196 202 219 225 222 216 210 203 205 204 190 205 244 217 215 216 189 185 221 221 220 223 222 231 235 227 267 276 250 226 191 141 121 142 121 142 244 239 227 251 257 241 206 191 179 189 187 189 210 226 226 204 191 216 223 176 213 258 262 181 211 254 251 203 197 193 204 214 210 209 215 214 206 194 189 190 187
131 332 281 24 73 221 239 193 180 199 212 205 206 226 229 227 219 205 158 136 204 209 208 224 227 221 217 194 184 221 229 227 236 228 213 220 217 202 244 262 252 177 130 131 192 137 152 239 231 214 258 264 252 234 212 191 185 196 214 222 225 228 205 179 203 227 223 238 262 279 268 253 255 227 201 209 208 211 235 267 228 219 216 202 192 196 199 195
137 197 246 50 38 273 334 104 165 193 213 204 214 228 227 228 222 208 138 169 199 220 210 223 232 216 201 201 202 225 232 224 238 243 207 202 226 199 211 237 200 102 135 153 199 239 206 219 162 137 252 270 274 296 261 205 194 206 240 242 234 206 147 189 213 218 226 251 258 264 271 268 260 194 182 228 225 203 259 267 243 236 232 210 198 205 206 200
121 82 104 116 205 209 220 181 163 185 210 205 220 226 219 227 221 206 214 210 205 209 195 214 232 225 196 212 214 229 239 226 231 240 210 197 221 209 214 211 155 140 187 177 161 239 208 233 76 118 223 254 205 169 175 139 166 233 253 249 233 169 187 223 213 191 202 226 245 257 260 262 259 145 139 225 181 193 229 236 236 245 237 213 208 209 206 199
124 57 72 109 209 213 185 169 158 188 212 210 219 225 222 233 216 183 215 248 214 213 192 187 213 210 193 222 225 230 235 205 193 212 173 154 153 124 216 185 153 154 170 174 174 118 164 183 109 165 222 253 166 166 165 111 164 251 247 233 214 208 226 236 229 217 211 200 213 235 241 251 248 125 150 230 207 211 228 230 232 239 223 211 216 211 202 198